Location: Cajon Junction
(34.3117°N, 117.4748°W)
Time: 14:41:09
(UTC+00:00)

H-2A R/B - Pass Details

Date: 18 April 2024
Orbit: 732 x 833 km, 98.2° (Epoch: 19 May)

Event Time Altitude Azimuth Distance (km) Brightness Sun altitude
Rises 12:40:48 0° 5° (N) 3,215 5.6 -7.4°
Reaches altitude 10° 12:43:07 10° 0° (N) 2,300 4.7 -7.0°
Maximum altitude 12:48:00 49° 287° (WNW) 994 2.3 -6.0°
Drops below altitude 10° 12:52:58 10° 213° (SSW) 2,350 4.1 -5.0°
Sets 12:55:23 0° 208° (SSW) 3,292 4.9 -4.6°
